Weather History for KAAA - May, 2014

Change the Weather History Date:

Tuesday, May 27, 2014

  Actual Average (KSPI) Record (KSPI)
Temperature  
Mean Temperature 78 °F 67 °F  
Max Temperature 89 °F 78 °F 94 °F (1911)
Min Temperature 68 °F 56 °F 34 °F (1992)
Degree Days  
Heating Degree Days 0 2  
Month to date heating degree days 118  
Since 1 July heating degree days 5463  
Cooling Degree Days 13 4  
Month to date cooling degree days 66  
Year to date cooling degree days 86  
Growing Degree Days 28 (Base 50)    
Moisture  
Dew Point 60 °F    
Average Humidity 57    
Maximum Humidity 83    
Minimum Humidity 33    
Precipitation  
Precipitation 0.00 in 0.14 in 2.54 in (1888)
Month to date precipitation 3.67  
Year to date precipitation 13.44  
Snow  
Snow 0.00 in 0.00 in 0.00 in ()
Month to date snowfall 0.0  
Since 1 July snowfall 20.9  
Snow Depth -    
Sea Level Pressure  
Sea Level Pressure 29.94 in    
Wind  
Wind Speed 3 mph (SW)    
Max Wind Speed 8 mph    
Max Gust Speed 16 mph    
Visibility 10 miles    
Events Rain    
T = Trace of Precipitation, MM = Missing Value Source: NWS Daily Summary

Daily Weather History Graph

Daily Weather History Graph

Search for Another Location

Airport or City:

Trip Planner

Search our weather history database for the weather conditions in past years. The results will help you decide how hot, cold, wet, or windy it might be!

Date:

Astronomy

May. 27, 2014 Rise Set
Actual Time 5:32 AM CDT 8:16 PM CDT
Civil Twilight 5:00 AM CDT 8:48 PM CDT
Nautical Twilight 4:20 AM CDT 9:28 PM CDT
Astronomical Twilight 3:35 AM CDT 10:14 PM CDT
Moon 4:55 AM CDT (5/27) 7:19 PM CDT (5/27)
Length of Visible Light 15h 48m
Length of Day
14h 44m
Waning Crescent, 1% of the Moon is Illuminated
May 27
Waning Crescent
May 28
New
Jun 5
First Quarter
Jun 12
Full
Jun 19
Last Quarter

Hourly Weather History & Observations

Time (CDT) Temp. Heat Index Dew Point Humidity Pressure Visibility Wind Dir Wind Speed Gust Speed Precip Events Conditions
12:15 AM 74.3 °F - 63.5 °F 69% 29.99 in 10.0 mi Calm Calm - N/A   Scattered Clouds
12:35 AM 74.3 °F - 62.8 °F 67% 29.99 in 10.0 mi WSW 3.5 mph - N/A   Scattered Clouds
12:55 AM 75.2 °F - 62.6 °F 65% 29.99 in 10.0 mi WSW 3.5 mph - N/A   Scattered Clouds
1:15 AM 73.8 °F - 61.7 °F 66% 29.98 in 10.0 mi WSW 4.6 mph - N/A   Scattered Clouds
1:35 AM 73.2 °F - 61.7 °F 67% 29.97 in 10.0 mi WSW 5.8 mph - N/A   Clear
1:55 AM 73.0 °F - 61.9 °F 68% 29.95 in 10.0 mi Calm Calm - N/A   Mostly Cloudy
2:15 AM 72.7 °F - 61.7 °F 68% 29.95 in 10.0 mi Calm Calm - N/A Rain Rain
2:35 AM 71.6 °F - 62.1 °F 72% 29.96 in 10.0 mi South 3.5 mph - N/A   Scattered Clouds
2:55 AM 70.7 °F - 62.8 °F 76% 29.95 in 10.0 mi Calm Calm - N/A   Scattered Clouds
3:15 AM 71.6 °F - 62.6 °F 73% 29.95 in 10.0 mi Calm Calm - N/A   Mostly Cloudy
3:35 AM 71.6 °F - 62.6 °F 73% 29.96 in 10.0 mi Calm Calm - N/A   Scattered Clouds
3:55 AM 70.3 °F - 62.4 °F 76% 29.96 in 10.0 mi Calm Calm - N/A   Clear
4:15 AM 70.3 °F - 62.6 °F 76% 29.97 in 10.0 mi Calm Calm - N/A   Scattered Clouds
4:35 AM 69.8 °F - 62.6 °F 78% 29.97 in 10.0 mi Calm Calm - N/A   Scattered Clouds
4:55 AM 69.8 °F - 62.6 °F 78% 29.96 in 10.0 mi South 3.5 mph - N/A   Clear
5:15 AM 68.9 °F - 62.8 °F 81% 29.97 in 10.0 mi Calm Calm - N/A   Clear
5:35 AM 69.1 °F - 62.2 °F 79% 29.97 in 10.0 mi Calm Calm - N/A   Clear
5:55 AM 69.4 °F - 61.7 °F 76% 29.97 in 10.0 mi South 3.5 mph - N/A   Clear
6:15 AM 68.0 °F - 62.6 °F 83% 29.97 in 10.0 mi South 4.6 mph - N/A   Clear
6:35 AM 68.4 °F - 63.0 °F 83% 29.98 in 10.0 mi Calm Calm - N/A   Clear
6:55 AM 69.1 °F - 62.6 °F 80% 29.98 in 10.0 mi SSW 4.6 mph - N/A   Clear
7:15 AM 70.0 °F - 61.9 °F 75% 29.98 in 10.0 mi SSW 6.9 mph - N/A   Clear
7:35 AM 70.3 °F - 61.9 °F 74% 29.98 in 10.0 mi SSW 4.6 mph - N/A   Clear
7:55 AM 71.2 °F - 62.1 °F 73% 29.98 in 10.0 mi SW 4.6 mph - N/A   Clear
8:15 AM 73.6 °F - 62.6 °F 68% 29.99 in 10.0 mi WSW 3.5 mph - N/A   Clear
8:35 AM 75.0 °F - 62.4 °F 65% 29.99 in 10.0 mi SW 4.6 mph - N/A   Mostly Cloudy
8:55 AM 75.4 °F - 62.8 °F 65% 29.99 in 10.0 mi SW 6.9 mph - N/A   Mostly Cloudy
9:15 AM 77.9 °F - 63.3 °F 61% 29.99 in 10.0 mi Calm Calm - N/A   Clear
9:35 AM 77.0 °F - 63.9 °F 64% 29.98 in 5.0 mi Calm Calm - N/A   Haze
9:55 AM 79.0 °F - 64.4 °F 61% 29.98 in 10.0 mi SW 4.6 mph - N/A   Clear
10:15 AM 79.0 °F - 64.9 °F 62% 29.98 in 10.0 mi WSW 4.6 mph - N/A   Clear
10:35 AM 79.2 °F - 65.1 °F 62% 29.97 in 10.0 mi WSW 5.8 mph - N/A   Clear
10:55 AM 79.7 °F - 65.3 °F 61% 29.98 in 10.0 mi SW 5.8 mph - N/A   Clear
11:15 AM 81.5 °F 83.4 °F 65.3 °F 58% 29.97 in 10.0 mi WSW 6.9 mph - N/A   Clear
11:35 AM 83.5 °F 84.5 °F 62.8 °F 50% 29.97 in 10.0 mi West 6.9 mph - N/A   Clear
11:55 AM 83.7 °F 83.0 °F 57.0 °F 40% 29.96 in 10.0 mi West 6.9 mph - N/A   Clear
12:15 PM 85.8 °F 85.2 °F 59.2 °F 40% 29.95 in 10.0 mi WSW 5.8 mph - N/A   Clear
12:35 PM 85.5 °F 84.8 °F 58.5 °F 40% 29.95 in 10.0 mi West 6.9 mph - N/A   Clear
12:55 PM 84.0 °F 83.5 °F 57.9 °F 41% 29.94 in 10.0 mi West 8.1 mph 16.1 mph N/A   Clear
1:15 PM 86.4 °F 85.4 °F 58.3 °F 38% 29.94 in 10.0 mi SSW 4.6 mph - N/A   Clear
1:35 PM 87.6 °F 86.7 °F 58.1 °F 37% 29.93 in 10.0 mi West 4.6 mph - N/A   Clear
1:55 PM 87.4 °F 85.7 °F 55.4 °F 33% 29.93 in 10.0 mi WSW 8.1 mph - N/A   Clear
2:15 PM 86.7 °F 85.3 °F 55.9 °F 35% 29.93 in 10.0 mi WSW 6.9 mph - N/A   Clear
2:35 PM 88.2 °F 86.7 °F 56.1 °F 34% 29.92 in 10.0 mi West 4.6 mph - N/A   Clear
2:55 PM 88.3 °F 86.7 °F 55.8 °F 33% 29.92 in 10.0 mi WSW 6.9 mph - N/A   Clear
3:15 PM 88.0 °F 86.3 °F 55.2 °F 33% 29.91 in 10.0 mi West 8.1 mph - N/A   Clear
3:35 PM 88.9 °F 87.7 °F 57.9 °F 35% 29.90 in 10.0 mi WSW 6.9 mph - N/A   Clear
3:55 PM 87.6 °F 86.3 °F 56.8 °F 35% 29.89 in 10.0 mi WSW 4.6 mph - N/A   Clear
4:15 PM 88.7 °F 87.3 °F 57.2 °F 34% 29.89 in 10.0 mi SW 4.6 mph - N/A   Clear
4:35 PM 86.7 °F 85.4 °F 56.8 °F 36% 29.89 in 10.0 mi SSW 6.9 mph - N/A   Clear
4:55 PM 86.7 °F 85.6 °F 57.7 °F 37% 29.88 in 10.0 mi SSW 5.8 mph - N/A   Scattered Clouds
5:15 PM 86.5 °F 85.9 °F 58.8 °F 39% 29.87 in 10.0 mi SW 5.8 mph - N/A   Mostly Cloudy
5:35 PM 87.4 °F 85.9 °F 56.1 °F 34% 29.88 in 10.0 mi WSW 4.6 mph - N/A   Scattered Clouds
5:55 PM 85.3 °F 83.9 °F 55.6 °F 36% 29.88 in 10.0 mi SW 5.8 mph - N/A   Clear
6:15 PM 84.4 °F 83.5 °F 56.7 °F 39% 29.88 in 10.0 mi Calm Calm - N/A   Clear
6:35 PM 84.4 °F 83.5 °F 57.0 °F 39% 29.88 in 10.0 mi West 3.5 mph - N/A   Clear
6:55 PM 83.8 °F 82.8 °F 55.9 °F 38% 29.88 in 10.0 mi WSW 3.5 mph - N/A   Clear
7:15 PM 82.9 °F 82.4 °F 57.2 °F 41% 29.89 in 10.0 mi WSW 3.5 mph - N/A   Clear
7:35 PM 82.4 °F 82.3 °F 58.6 °F 44% 29.89 in 10.0 mi West 3.5 mph - N/A   Clear
7:55 PM 81.5 °F 81.7 °F 59.0 °F 46% 29.90 in 10.0 mi Calm Calm - N/A   Clear
8:15 PM 80.2 °F 80.9 °F 59.4 °F 49% 29.90 in 10.0 mi Calm Calm - N/A   Clear
8:35 PM 79.7 °F - 59.4 °F 50% 29.90 in 10.0 mi Calm Calm - N/A   Clear
8:55 PM 78.6 °F - 59.9 °F 52% 29.90 in 10.0 mi Calm Calm - N/A   Clear
9:15 PM 76.1 °F - 60.3 °F 58% 29.90 in 10.0 mi Calm Calm - N/A   Clear
9:35 PM 76.5 °F - 60.3 °F 57% 29.90 in 10.0 mi Calm Calm - N/A   Clear
9:55 PM 76.8 °F - 60.4 °F 57% 29.91 in 10.0 mi Calm Calm - N/A   Clear
10:15 PM 76.6 °F - 60.3 °F 57% 29.91 in 10.0 mi Calm Calm - N/A   Clear
10:35 PM 75.7 °F - 60.3 °F 59% 29.91 in 10.0 mi Calm Calm - N/A   Clear
10:55 PM 71.6 °F - 60.4 °F 68% 29.92 in 10.0 mi Calm Calm - N/A   Clear
11:15 PM 70.2 °F - 60.6 °F 72% 29.92 in 10.0 mi Calm Calm - N/A   Clear
11:35 PM 70.2 °F - 60.8 °F 72% 29.92 in 10.0 mi Calm Calm - N/A   Clear
11:55 PM 69.3 °F - 60.8 °F 74% 29.92 in 10.0 mi Calm Calm - N/A   Clear